Wind_Speed
21 19 18 15 13 10 1 4 6 9 13 12 12 12 13 15 13 12 12 11 8 8 8 10 10 10 9 9 9 9 9 9 9 10 11 11 12 12 12 13 13 13 13 13 13 13 13 13 12
23 22 21 19 17 11 7 6 5 12 16 12 12 12 13 14 13 12 11 9 6 7 7 8 8 8 8 7 7 7 7 6 7 7 8 9 9 10 10 11 11 11 11 11 11 11 12 11 11
25 25 24 23 20 13 7 4 7 10 13 12 11 11 12 12 11 10 9 8 6 6 6 7 7 6 6 5 5 5 4 4 4 5 6 7 7 7 8 8 9 9 9 10 10 11 11 11 11
25 27 27 26 23 15 9 8 9 8 10 11 11 11 11 10 10 8 8 7 5 6 6 6 5 5 4 3 3 2 2 3 4 4 4 5 5 6 6 7 8 8 9 10 10 11 11 11 11
25 27 28 28 26 20 14 11 12 12 10 10 10 13 11 9 8 7 7 6 6 6 6 6 5 5 4 3 1 1 1 2 3 3 4 4 5 6 6 7 8 8 9 10 11 11 12 12 12
24 26 27 27 24 20 15 14 16 14 11 10 11 14 10 8 7 6 6 6 6 6 6 6 6 6 5 4 3 1 1 1 2 3 3 4 5 5 6 7 8 9 10 10 11 12 12 12 13
21 23 24 23 22 20 16 16 18 17 13 12 12 15 12 9 7 6 6 6 6 7 7 7 6 6 5 4 3 2 2 1 2 2 3 4 5 6 6 7 8 9 10 11 12 13 13 13 13
18 21 22 23 23 20 17 16 19 18 16 14 14 14 14 9 7 7 7 7 7 7 6 6 6 5 5 4 3 2 2 2 2 3 4 5 6 6 7 8 9 10 11 12 13 14 14 14 14
16 18 19 20 19 17 14 17 18 17 18 16 13 17 14 8 8 7 8 8 7 7 6 6 5 4 4 3 2 2 2 3 4 5 6 6 8 8 9 10 11 12 13 14 15 15 16 15 15
15 14 15 17 16 15 16 20 19 18 18 16 16 19 12 10 9 8 8 8 7 7 6 5 4 2 1 1 2 4 5 5 6 7 8 9 10 11 12 13 14 15 16 16 17 17 17 17 17
16 15 17 17 17 19 20 20 20 19 19 17 18 19 13 11 10 10 10 8 7 6 5 4 2 2 3 4 6 6 7 7 8 9 10 12 13 13 14 16 17 18 19 20 20 20 20 20 20
18 17 18 19 20 21 21 20 19 19 20 19 20 20 15 13 12 12 11 9 8 7 5 5 4 5 6 8 9 9 10 9 10 12 13 15 16 17 18 20 21 21 23 24 24 24 23 23 24
20 20 20 19 18 18 20 20 20 20 21 20 19 21 19 14 13 12 12 11 10 8 7 7 8 9 10 11 12 12 13 13 14 15 17 18 20 21 22 24 24 25 26 26 28 28 28 27 28
21 22 21 19 18 17 18 19 21 20 21 21 21 19 16 14 14 14 14 13 11 11 10 10 11 12 13 14 15 16 16 17 17 18 20 22 23 23 25 26 27 28 29 31 31 31 31 32 32
24 23 22 19 17 16 16 17 17 18 20 21 21 19 17 14 14 15 15 14 13 12 13 13 14 14 15 17 18 19 19 20 20 20 22 24 25 25 26 27 29 31 31 33 33 32 32 33 34
25 23 21 19 19 17 16 14 14 16 19 20 20 19 19 16 16 17 19 17 16 15 15 16 17 17 18 19 20 21 22 23 23 23 25 26 27 27 28 30 32 32 32 32 32 33 33 33 33
24 22 20 18 19 18 17 12 11 14 17 20 20 18 18 18 19 20 21 19 18 17 17 18 19 19 20 22 23 24 25 25 26 26 27 28 29 30 30 32 34 33 34 33 32 32 31 31 31
19 18 18 16 18 19 17 15 14 17 19 19 19 19 21 20 21 21 22 21 19 19 19 19 21 22 23 24 26 27 27 28 29 30 31 31 31 32 33 34 34 34 34 33 32 31 29 29 28
20 18 16 15 19 22 20 19 19 19 19 19 19 20 21 22 23 23 24 23 22 22 21 21 23 24 25 26 28 30 30 31 32 34 34 35 34 35 34 35 34 35 35 33 32 31 30 29 28
25 23 20 18 22 26 23 22 22 21 21 22 23 24 26 26 26 26 25 24 24 24 24 24 26 27 29 30 31 32 33 34 35 35 36 36 36 36 36 37 36 36 35 33 32 32 31 29 28
29 26 23 21 24 28 26 24 25 25 25 26 26 28 28 28 27 26 27 28 27 27 27 28 29 31 32 33 34 35 36 37 37 38 38 39 39 39 39 39 38 37 36 35 33 33 33 32 32
29 28 27 26 26 27 27 25 24 25 27 29 30 31 30 28 29 30 30 29 30 31 30 31 33 34 35 36 37 37 38 39 39 40 40 41 41 42 41 41 40 39 38 37 35 35 35 35 35
29 26 27 29 30 29 26 24 21 22 27 31 33 34 32 30 30 31 32 33 33 34 34 34 36 36 37 37 38 38 39 40 41 42 43 43 44 43 43 43 42 41 40 39 38 38 38 38 39
29 28 27 28 30 32 28 25 21 23 29 33 34 34 32 31 31 33 34 35 36 36 37 37 37 37 37 38 38 39 41 42 43 44 45 45 45 45 44 45 44 43 42 42 42 42 42 43 43
29 28 26 26 28 28 24 25 26 29 32 35 36 35 34 33 33 34 35 36 37 37 37 37 37 37 37 37 38 40 42 44 45 46 46 46 46 46 46 46 46 46 45 46 46 46 46 47 48
28 28 26 20 16 15 17 21 28 33 35 37 38 38 38 37 36 36 36 36 36 36 35 36 36 36 36 37 39 41 43 44 45 46 47 47 47 47 48 48 48 48 49 49 49 50 50 51 52
25 26 25 23 20 15 15 26 32 32 33 35 38 39 40 39 38 36 35 33 33 33 34 35 35 36 37 38 40 41 43 45 46 47 48 48 49 50 50 50 51 52 52 53 53 53 54 54 55
22 21 23 27 25 20 14 23 30 30 30 32 34 36 36 35 34 33 32 31 31 32 33 34 35 36 37 39 41 42 44 45 47 48 49 51 51 52 52 53 54 55 55 56 57 57 57 58 58
20 21 23 24 26 23 18 22 25 27 28 30 29 28 28 29 28 29 29 30 30 31 33 34 35 37 38 40 42 44 45 47 48 50 51 52 53 54 55 56 58 59 59 60 60 60 60 59 59
17 20 21 25 25 26 24 27 27 27 29 28 26 24 24 25 26 28 29 30 31 32 33 35 36 38 40 42 44 45 47 48 50 51 53 54 55 57 58 59 60 61 61 61 60 61 61 61 60
Wind_Direction
216 211 209 202 191 176 184 273 268 264 256 258 257 261 268 268 275 279 275 272 266 253 250 245 242 243 243 242 241 241 242 244 250 253 255 257 259 260 261 261 260 260 260 260 261 264 267 269 271
216 214 211 205 196 178 236 225 249 256 257 266 269 268 272 276 280 281 277 270 256 249 244 240 237 236 237 238 239 240 245 249 254 258 259 260 261 262 263 264 264 265 264 265 267 269 271 272 274
218 216 213 209 199 189 232 226 241 260 270 268 272 279 281 283 280 275 268 258 241 236 231 226 223 225 230 231 233 239 250 259 263 265 265 265 267 269 271 271 271 271 270 271 273 275 277 278 279
219 216 215 212 202 191 236 256 252 259 261 264 269 276 279 279 275 268 254 241 224 216 210 204 201 204 209 212 221 238 261 275 278 276 275 275 276 278 278 278 278 278 278 279 280 282 282 283 283
219 218 217 215 208 202 220 250 259 252 255 267 270 269 270 273 267 255 240 225 212 202 196 188 182 179 176 174 178 221 287 302 303 301 297 293 290 287 285 286 285 284 283 283 283 284 284 284 284
219 218 219 217 213 214 227 248 260 250 241 259 267 268 269 274 263 247 232 216 197 191 184 174 164 158 149 142 137 123 65 354 335 328 319 314 311 306 300 296 292 288 286 285 285 285 285 285 285
220 219 218 214 212 215 224 238 248 241 236 243 250 260 266 261 253 234 222 209 193 184 175 163 154 147 142 138 126 104 76 34 4 347 336 331 326 321 316 309 302 297 294 292 290 289 287 286 285
219 218 214 210 213 215 217 237 248 236 224 233 240 246 251 251 250 233 219 206 194 184 176 161 148 139 131 120 103 84 65 35 11 358 350 344 337 331 324 317 312 307 302 299 296 293 291 289 286
220 218 213 207 212 216 224 239 245 232 223 224 234 245 246 249 246 235 222 212 199 190 177 168 156 140 127 108 72 36 17 3 358 357 352 347 341 335 329 323 319 315 310 305 300 296 294 291 287
224 219 208 201 202 218 227 236 232 224 222 222 233 249 253 251 243 236 223 212 202 192 184 181 174 164 143 10 359 355 354 352 348 345 343 340 339 337 332 326 321 316 310 305 301 298 294 290 286
225 219 207 200 211 218 218 227 224 217 214 217 229 244 249 246 244 237 226 216 208 205 208 208 227 284 316 332 340 340 344 348 346 342 341 338 336 334 331 326 322 316 312 307 302 299 295 291 288
227 223 220 212 218 222 219 220 220 214 211 217 225 234 239 239 245 243 235 230 223 225 240 256 281 304 317 324 329 335 340 341 339 336 336 335 334 331 331 327 320 316 313 310 306 299 294 290 287
229 229 230 229 229 230 225 220 217 212 213 219 222 229 229 232 241 243 244 244 242 249 264 280 294 306 313 319 323 327 332 332 332 331 330 331 332 331 329 328 323 321 319 314 309 302 295 290 287
230 233 234 235 235 236 230 222 219 212 215 220 226 229 236 236 240 241 243 246 253 259 271 283 293 304 309 313 317 322 323 324 327 328 328 328 329 330 329 328 326 324 320 317 312 308 300 294 290
230 234 236 237 238 238 233 222 216 214 218 223 227 226 231 235 245 250 252 250 258 264 275 284 293 302 308 309 311 316 318 319 321 323 324 325 326 326 327 328 326 326 324 320 316 309 303 296 292
231 234 237 239 240 236 232 220 210 214 219 224 228 226 226 234 245 251 251 248 258 267 276 284 291 298 303 306 308 311 314 315 317 318 321 322 322 324 325 326 326 325 326 324 318 311 305 299 294
231 235 238 241 245 238 232 214 198 218 223 225 225 227 231 236 243 250 250 250 255 265 273 281 288 293 298 301 304 307 310 311 311 313 315 317 318 321 322 323 324 323 324 324 319 317 313 305 297
229 238 240 236 245 243 230 204 185 217 224 226 225 226 232 234 238 246 252 254 258 266 272 279 284 288 292 296 299 301 303 304 306 308 310 312 313 317 318 320 321 321 323 323 322 321 318 313 304
211 228 233 228 237 244 232 210 193 216 228 222 223 227 233 238 240 241 248 252 257 263 271 276 281 286 288 290 292 293 295 297 300 302 304 307 310 314 316 319 319 320 321 320 318 318 318 316 310
213 218 219 220 229 238 234 220 207 213 231 229 222 224 228 235 239 243 248 255 258 263 268 274 278 282 284 284 285 286 289 291 294 297 299 302 306 309 311 312 314 315 316 317 315 314 314 315 313
219 217 215 218 230 241 240 233 222 218 230 237 233 231 231 233 239 245 250 253 259 263 266 271 275 278 280 280 281 282 283 286 288 291 294 297 301 303 305 307 309 309 310 311 311 311 311 311 310
224 221 216 216 228 241 246 242 235 230 233 237 239 237 238 240 244 248 253 257 263 266 268 271 273 275 276 277 278 278 280 282 284 286 289 293 296 298 300 302 304 304 304 306 306 307 306 306 306
225 223 222 221 225 232 240 244 238 242 242 241 243 244 247 249 250 252 255 259 263 266 269 271 273 274 275 275 274 274 276 278 281 283 286 290 293 294 296 298 299 300 301 302 302 302 303 303 302
224 222 224 227 230 235 234 236 238 237 241 244 247 251 254 254 255 257 259 261 263 266 268 270 270 271 272 272 271 272 275 277 279 282 285 288 290 291 293 295 296 297 299 299 299 299 300 300 299
225 222 225 232 236 243 243 238 235 236 239 244 250 254 257 259 261 262 263 263 264 265 267 269 269 270 270 269 270 272 274 277 279 281 284 286 287 289 291 293 294 295 296 296 297 297 298 298 298
226 224 222 224 244 258 256 245 239 239 240 244 250 255 259 263 265 266 266 265 265 266 266 266 267 268 268 269 270 272 274 276 279 281 283 285 286 288 289 290 291 292 293 294 295 295 296 296 296
225 225 217 213 216 234 237 230 236 243 247 250 252 256 259 263 265 266 266 265 265 265 265 265 266 267 267 267 269 271 273 275 278 280 283 284 286 287 287 288 290 291 292 293 294 294 295 296 296
221 222 216 214 217 224 232 239 245 254 256 257 256 257 258 260 262 263 263 263 263 263 264 265 265 266 267 268 270 271 273 275 277 280 282 283 285 286 287 288 290 291 292 293 293 294 295 295 295
221 218 220 221 220 223 235 242 246 242 249 251 253 255 257 258 260 261 261 263 263 264 264 265 266 267 268 269 271 272 274 276 277 279 280 282 284 285 287 289 289 290 291 292 293 294 295 294 294
226 227 223 223 222 223 235 253 251 253 253 254 256 255 256 257 258 260 262 263 264 264 265 266 267 268 270 271 273 273 274 275 277 278 280 282 283 285 287 288 289 290 291 292 293 294 294 294 294
Height
5884 5887 5889 5893 5896 5899 5900 5901 5901 5900 5897 5897 5897 5897 5896 5894 5895 5896 5893 5892 5894 5893 5893 5893 5894 5895 5895 5896 5897 5897 5898 5898 5899 5899 5900 5900 5901 5901 5901 5901 5901 5902 5902 5902 5902 5902 5902 5902 5902
5881 5884 5887 5890 5894 5895 5898 5898 5899 5898 5896 5895 5895 5896 5894 5893 5893 5893 5892 5892 5893 5892 5892 5892 5893 5893 5894 5895 5895 5896 5897 5897 5898 5898 5899 5899 5900 5900 5900 5900 5900 5900 5900 5900 5900 5900 5900 5900 5900
5878 5881 5884 5887 5891 5892 5894 5896 5898 5896 5895 5896 5895 5894 5894 5893 5892 5892 5891 5891 5891 5891 5892 5892 5892 5893 5893 5894 5895 5895 5896 5896 5897 5897 5898 5898 5899 5899 5899 5899 5899 5899 5899 5899 5898 5898 5898 5898 5898
5874 5877 5880 5884 5887 5890 5892 5894 5895 5896 5896 5895 5895 5893 5892 5892 5891 5891 5890 5890 5891 5891 5891 5891 5891 5892 5893 5893 5894 5895 5895 5896 5896 5897 5897 5897 5898 5898 5898 5898 5898 5898 5897 5897 5897 5897 5896 5896 5896
5870 5873 5876 5879 5883 5887 5890 5892 5894 5894 5895 5894 5894 5892 5890 5890 5890 5890 5890 5890 5890 5890 5890 5891 5891 5892 5892 5893 5893 5894 5894 5895 5895 5896 5896 5896 5897 5897 5897 5897 5896 5896 5896 5895 5895 5895 5894 5894 5894
5866 5869 5872 5876 5881 5885 5889 5892 5892 5893 5894 5894 5893 5890 5888 5889 5889 5889 5889 5889 5889 5890 5890 5890 5891 5891 5892 5893 5893 5894 5894 5894 5895 5895 5895 5895 5895 5895 5895 5895 5895 5894 5894 5893 5893 5893 5892 5892 5892
5864 5866 5869 5873 5877 5882 5887 5889 5890 5891 5892 5893 5892 5890 5888 5887 5888 5888 5888 5889 5889 5890 5890 5890 5890 5891 5892 5892 5893 5893 5894 5894 5894 5894 5894 5894 5894 5894 5894 5894 5893 5893 5892 5892 5891 5891 5890 5890 5889
5861 5864 5865 5869 5873 5878 5883 5886 5886 5887 5889 5890 5890 5887 5885 5886 5887 5888 5888 5888 5889 5889 5890 5890 5891 5891 5892 5892 5893 5893 5893 5893 5894 5894 5894 5894 5893 5893 5893 5892 5892 5891 5891 5890 5889 5889 5888 5888 5887
5858 5861 5863 5867 5871 5877 5881 5883 5883 5884 5886 5888 5887 5884 5884 5884 5887 5887 5887 5888 5888 5889 5889 5890 5891 5891 5891 5892 5892 5893 5893 5893 5893 5893 5893 5893 5893 5892 5892 5891 5891 5890 5889 5889 5888 5887 5886 5885 5884
5856 5859 5862 5865 5869 5874 5878 5880 5880 5882 5884 5886 5885 5883 5884 5886 5886 5887 5887 5887 5888 5889 5889 5890 5890 5891 5891 5892 5892 5892 5892 5892 5892 5892 5892 5892 5892 5891 5891 5890 5889 5888 5887 5886 5885 5884 5883 5882 5882
5854 5857 5859 5861 5866 5869 5872 5874 5876 5879 5882 5884 5884 5880 5881 5883 5885 5886 5887 5887 5887 5888 5889 5890 5890 5890 5891 5891 5891 5891 5892 5891 5891 5891 5891 5890 5890 5889 5889 5888 5887 5885 5884 5883 5882 5881 5880 5879 5879
5851 5854 5856 5858 5861 5864 5867 5870 5873 5875 5879 5880 5880 5879 5879 5882 5883 5885 5886 5886 5887 5887 5888 5889 5889 5889 5890 5890 5890 5890 5890 5890 5890 5889 5889 5888 5887 5886 5886 5885 5884 5882 5881 5879 5878 5877 5876 5875 5875
5848 5851 5853 5856 5858 5860 5863 5865 5869 5872 5875 5876 5876 5876 5877 5878 5881 5883 5884 5885 5886 5887 5887 5888 5888 5888 5888 5889 5889 5889 5889 5889 5888 5887 5886 5885 5885 5883 5882 5881 5880 5878 5877 5875 5874 5872 5871 5870 5870
5845 5847 5850 5853 5855 5857 5859 5862 5865 5869 5871 5873 5874 5873 5874 5876 5877 5879 5881 5882 5884 5885 5886 5886 5887 5887 5887 5887 5887 5887 5887 5886 5886 5885 5884 5882 5882 5881 5879 5878 5876 5874 5872 5871 5868 5866 5865 5864 5863
5840 5843 5846 5849 5852 5854 5856 5859 5862 5866 5869 5871 5871 5872 5873 5873 5875 5877 5877 5879 5882 5883 5884 5885 5885 5885 5885 5885 5885 5885 5884 5883 5883 5882 5881 5880 5878 5877 5875 5874 5872 5870 5868 5865 5862 5859 5858 5856 5856
5835 5839 5843 5846 5848 5850 5854 5857 5860 5862 5866 5868 5869 5871 5872 5874 5875 5875 5874 5875 5878 5880 5881 5882 5882 5883 5883 5883 5882 5882 5881 5880 5880 5879 5878 5876 5875 5873 5871 5869 5868 5865 5863 5860 5857 5854 5851 5850 5849
5831 5835 5839 5843 5844 5847 5851 5854 5857 5861 5863 5865 5867 5868 5870 5873 5873 5872 5870 5872 5874 5876 5878 5879 5879 5880 5880 5880 5879 5879 5878 5877 5876 5875 5874 5873 5871 5869 5867 5865 5863 5860 5858 5854 5851 5848 5845 5843 5842
5829 5832 5836 5840 5842 5844 5847 5851 5854 5858 5861 5862 5864 5866 5867 5868 5869 5869 5867 5868 5870 5873 5875 5876 5876 5876 5877 5876 5876 5875 5874 5873 5872 5871 5869 5868 5866 5865 5863 5860 5858 5855 5852 5849 5846 5843 5840 5838 5836
5823 5830 5834 5838 5841 5841 5844 5848 5850 5854 5856 5859 5861 5862 5863 5863 5863 5865 5864 5864 5867 5870 5871 5872 5872 5872 5872 5872 5871 5870 5869 5868 5867 5865 5864 5863 5861 5859 5857 5855 5853 5850 5847 5844 5840 5838 5835 5832 5830
5817 5823 5830 5836 5837 5837 5840 5844 5847 5850 5852 5854 5856 5857 5858 5859 5859 5860 5860 5859 5862 5865 5867 5868 5868 5868 5867 5867 5866 5865 5864 5863 5862 5860 5859 5857 5855 5854 5852 5850 5847 5845 5842 5839 5836 5833 5830 5828 5826
5813 5818 5824 5830 5832 5832 5835 5839 5842 5845 5848 5849 5851 5851 5852 5854 5855 5855 5856 5857 5858 5860 5861 5863 5863 5862 5861 5860 5859 5858 5857 5856 5856 5854 5853 5851 5849 5848 5846 5844 5841 5839 5836 5833 5831 5828 5825 5823 5820
5807 5812 5817 5822 5826 5828 5830 5833 5837 5839 5842 5843 5844 5845 5847 5849 5851 5852 5852 5851 5852 5854 5855 5856 5856 5856 5855 5854 5853 5852 5850 5849 5848 5847 5846 5844 5843 5841 5839 5837 5834 5832 5829 5826 5824 5821 5819 5816 5813
5802 5807 5811 5815 5819 5822 5825 5828 5833 5834 5834 5835 5837 5838 5842 5845 5846 5847 5847 5847 5847 5847 5848 5849 5849 5848 5847 5846 5845 5844 5843 5842 5840 5839 5838 5837 5835 5833 5831 5829 5826 5824 5821 5819 5816 5813 5811 5808 5805
5796 5801 5805 5809 5812 5815 5820 5823 5828 5828 5827 5827 5829 5832 5836 5838 5840 5840 5841 5841 5841 5841 5841 5841 5841 5840 5839 5838 5837 5836 5835 5834 5832 5830 5829 5828 5826 5824 5822 5820 5817 5815 5812 5810 5807 5804 5801 5798 5795
5791 5796 5801 5804 5807 5811 5816 5818 5821 5820 5820 5821 5824 5826 5828 5831 5832 5833 5834 5834 5833 5833 5833 5833 5832 5832 5831 5830 5829 5828 5827 5825 5824 5822 5820 5819 5817 5815 5813 5810 5808 5805 5803 5800 5797 5794 5791 5787 5784
5786 5791 5797 5803 5807 5810 5813 5814 5812 5812 5815 5817 5818 5820 5821 5823 5824 5824 5825 5825 5825 5825 5825 5825 5824 5824 5823 5822 5821 5820 5819 5817 5815 5812 5811 5809 5806 5804 5803 5800 5798 5795 5792 5789 5786 5783 5779 5775 5771
5781 5786 5792 5797 5800 5804 5807 5806 5804 5805 5809 5811 5812 5813 5814 5814 5815 5815 5816 5816 5816 5816 5816 5816 5816 5815 5815 5814 5813 5812 5810 5808 5806 5804 5802 5799 5797 5795 5792 5790 5787 5784 5781 5777 5774 5770 5766 5762 5757
5778 5782 5786 5789 5794 5798 5802 5800 5800 5800 5802 5803 5803 5804 5805 5805 5806 5807 5807 5807 5808 5808 5808 5808 5808 5807 5806 5806 5805 5803 5801 5799 5797 5795 5792 5789 5787 5784 5781 5778 5775 5772 5768 5764 5760 5756 5752 5747 5743
5774 5778 5781 5785 5789 5793 5796 5795 5790 5791 5793 5792 5793 5794 5796 5797 5798 5798 5799 5799 5800 5800 5800 5799 5799 5798 5797 5796 5795 5794 5792 5790 5787 5785 5782 5779 5775 5772 5769 5766 5762 5758 5754 5750 5745 5741 5737 5732 5727
5771 5774 5777 5781 5783 5787 5789 5789 5786 5786 5785 5784 5785 5787 5789 5790 5790 5791 5791 5792 5792 5792 5792 5791 5790 5789 5788 5787 5785 5783 5781 5779 5776 5773 5770 5767 5763 5760 5756 5752 5748 5744 5739 5735 5730 5725 5721 5716 5712